{"data":{"norad_id":55821,"epoch":"2026-05-25T04:10:31.046016Z","epoch_age_seconds":73199,"freshness":"FRESH","line1":"1 55821U 23029AB  26145.17397044  .00000212  00000+0  53757-3 0  9994","line2":"2 55821  87.8931 294.3345 0001885  87.5114 272.6231 13.14501474156361","mean_motion":13.14501474,"eccentricity":0.0001885,"inclination_deg":87.8931,"raan_deg":294.3345,"arg_perigee_deg":87.5114,"mean_anomaly_deg":272.6231,"bstar":0.00053757,"rev_number":15636,"period_min":109.54723356971,"perigee_km":1204.3658835535,"apogee_km":1207.225026089,"semimajor_km":7583.9324548213,"source":"CELESTRAK","updated_at":"2026-05-25T13:38:22.695728Z"}}